Mitchell, SD

10:49 AM CDT on June 23, 2017 (GMT -0500)
Mitchell Municipal

Weather History for KMHE - September, 2013

Change the Weather History Date:

Tuesday, September 24, 2013

  Actual Average Record
Temperature  
Mean Temperature 67 °F 59 °F  
Max Temperature 79 °F 72 °F 94 °F (1935)
Min Temperature 55 °F 46 °F 23 °F (1965)
Degree Days  
Heating Degree Days 0 7  
Month to date heating degree days 29 91  
Since 1 July heating degree days 52 108  
Cooling Degree Days 2 1  
Month to date cooling degree days 138 67  
Year to date cooling degree days 919 812  
Growing Degree Days 19 (Base 50)    
Moisture  
Dew Point 56 °F    
Average Humidity 66    
Maximum Humidity 90    
Minimum Humidity 42    
Precipitation  
Precipitation T in 0.08 in 1.70 in (1934)
Month to date precipitation 1.18 1.89  
Year to date precipitation 19.67 18.24  
Snow  
Snow 0.00 in - T in (1912)
Month to date snowfall 0.0  
Since 1 July snowfall 0.0  
Since 1 September snowfall 0.0  
Snow Depth 0.00 in    
Sea Level Pressure  
Sea Level Pressure 29.89 in    
Wind  
Wind Speed 4 mph (NNW)    
Max Wind Speed 12 mph    
Max Gust Speed 25 mph    
Visibility 10 miles    
Events      
T = Trace of Precipitation, MM = Missing Value Source: NWS Daily Summary

Daily Weather History Graph

Daily Weather History Graph

Search for Another Location

Airport or City:

Trip Planner

Search our weather history database for the weather conditions in past years. The results will help you decide how hot, cold, wet, or windy it might be!

Date:

Astronomy

Sep. 24, 2013 Rise Set
Actual Time 7:21 AM CDT 7:25 PM CDT
Civil Twilight 6:53 AM CDT 7:53 PM CDT
Nautical Twilight 6:19 AM CDT 8:27 PM CDT
Astronomical Twilight 5:45 AM CDT 9:01 PM CDT
Moon 10:34 PM CDT (9/24) 12:47 PM CDT (9/24)
Length of Visible Light 13h 00m
Length of Day
12h 03m
Waning Gibbous, 73% of the Moon is Illuminated
Sep 24
Waning Gibbous
Sep 26
Last Quarter
Oct 4
New
Oct 11
First Quarter
Oct 18
Full

Hourly Weather History & Observations

Time (CDT) Temp. Dew Point Humidity Pressure Visibility Wind Dir Wind Speed Gust Speed Precip Events Conditions
12:53 AM 66.0 °F 53.1 °F 63% 29.80 in 10.0 mi South 5.8 mph - N/A   Overcast
1:53 AM 64.9 °F 54.0 °F 68% 29.81 in 10.0 mi South 8.1 mph - N/A   Overcast
2:53 AM 64.0 °F 54.0 °F 70% 29.82 in 10.0 mi SSW 4.6 mph - N/A   Overcast
3:53 AM 62.1 °F 55.0 °F 78% 29.83 in 10.0 mi South 4.6 mph - N/A   Overcast
4:53 AM 62.1 °F 55.0 °F 78% 29.83 in 10.0 mi SSW 4.6 mph - N/A   Overcast
5:53 AM 60.1 °F 55.0 °F 83% 29.85 in 10.0 mi WNW 6.9 mph - N/A   Overcast
6:53 AM 60.1 °F 55.9 °F 86% 29.87 in 10.0 mi NW 3.5 mph - 0.00 in   Overcast
7:24 AM 60.8 °F 57.2 °F 88% 29.89 in 10.0 mi North 6.9 mph - N/A   Overcast
7:42 AM 60.8 °F 57.2 °F 88% 29.89 in 8.0 mi NNW 4.6 mph - N/A   Overcast
7:53 AM 60.1 °F 57.9 °F 93% 29.89 in 7.0 mi NW 6.9 mph - N/A   Overcast
8:53 AM 61.0 °F 57.9 °F 90% 29.91 in 10.0 mi North 5.8 mph - N/A   Overcast
9:29 AM 62.6 °F 57.2 °F 82% 29.93 in 10.0 mi North 5.8 mph - N/A   Overcast
9:39 AM 62.6 °F 57.2 °F 82% 29.93 in 10.0 mi NNW 8.1 mph - N/A   Overcast
9:53 AM 62.1 °F 57.9 °F 86% 29.92 in 10.0 mi NNW 6.9 mph - N/A   Overcast
10:22 AM 62.6 °F 57.2 °F 82% 29.95 in 10.0 mi NNW 8.1 mph - N/A   Mostly Cloudy
10:36 AM 62.6 °F 57.2 °F 82% 29.95 in 10.0 mi North 8.1 mph - N/A   Scattered Clouds
10:53 AM 64.9 °F 57.9 °F 78% 29.94 in 10.0 mi North 8.1 mph - N/A   Clear
11:53 AM 71.1 °F 57.0 °F 61% 29.93 in 10.0 mi North 9.2 mph - N/A   Clear
12:53 PM 73.9 °F 57.0 °F 55% 29.93 in 10.0 mi North 8.1 mph - N/A   Partly Cloudy
1:53 PM 73.9 °F 55.0 °F 52% 29.91 in 10.0 mi Variable 3.5 mph - N/A   Mostly Cloudy
2:53 PM 75.9 °F 55.0 °F 48% 29.89 in 10.0 mi Calm Calm - N/A   Scattered Clouds
3:53 PM 78.1 °F 55.0 °F 45% 29.88 in 10.0 mi Calm Calm - N/A   Scattered Clouds
4:53 PM 78.1 °F 54.0 °F 43% 29.88 in 10.0 mi Calm Calm - N/A   Clear
5:53 PM 78.1 °F 54.0 °F 43% 29.88 in 10.0 mi NNE 3.5 mph - N/A   Partly Cloudy
6:53 PM 73.0 °F 57.0 °F 57% 29.88 in 10.0 mi Calm Calm - N/A   Clear
7:53 PM 68.0 °F 55.0 °F 63% 29.88 in 10.0 mi East 3.5 mph - N/A   Clear
8:53 PM 64.9 °F 55.0 °F 70% 29.89 in 10.0 mi Calm Calm - N/A   Clear
9:53 PM 60.1 °F 54.0 °F 80% 29.89 in 10.0 mi Calm Calm - N/A   Clear
10:53 PM 60.1 °F 54.0 °F 80% 29.89 in 10.0 mi South 6.9 mph - N/A   Clear
11:53 PM 57.9 °F 53.1 °F 84% 29.89 in 10.0 mi SSE 4.6 mph - N/A   Clear